This is the latest recevied weather packets stored in our database for station/object PACCTY. If no packets are shown the sender has not sent any weather packets the latest 10 day(s).
| Time | Temp. | Humidity | Pressure | Rain* | Wind** | Luminosity | Snow |
|---|---|---|---|---|---|---|---|
| 1777856114 | 18.89° C | 70% | 1005.5 hPa | 0 mm | - | - | - |
| 1777855814 | 19.44° C | 70% | 1005.6 hPa | 0 mm | - | - | - |
| 1777855514 | 19.44° C | 69% | 1005.5 hPa | 0 mm | - | - | - |
| 1777855214 | 20° C | 67% | 1005.5 hPa | 0 mm | - | - | - |
| 1777854916 | 20° C | 66% | 1005.5 hPa | 0 mm | - | - | - |
| 1777854614 | 20.56° C | 66% | 1005.5 hPa | 0 mm | - | - | - |
| 1777854314 | 21.11° C | 65% | 1005.5 hPa | 0 mm | - | - | - |
| 1777854014 | 21.67° C | 64% | 1005.5 hPa | 0 mm | - | - | - |
| 1777853715 | 21.67° C | 63% | 1005.4 hPa | 0 mm | - | - | - |
| 1777853414 | 22.22° C | 62% | 1005.4 hPa | 0 mm | - | - | - |
| 1777853114 | 22.22° C | 62% | 1005.4 hPa | 0 mm | - | - | - |
| 1777852814 | 22.78° C | 60% | 1005.4 hPa | 0 mm | - | - | - |
| 1777852514 | 22.78° C | 58% | 1005.5 hPa | 0 mm | - | - | - |
| 1777852214 | 23.33° C | 58% | 1005.5 hPa | 0 mm | - | - | - |
| 1777851914 | 23.89° C | 56% | 1005.5 hPa | 0 mm | - | - | - |
| 1777851614 | 23.89° C | 54% | 1005.6 hPa | 0 mm | - | - | - |
| 1777851314 | 24.44° C | 54% | 1005.6 hPa | 0 mm | - | - | - |
| 1777851015 | 25° C | 53% | 1005.6 hPa | 0 mm | - | - | - |
| 1777850714 | 25° C | 51% | 1005.7 hPa | 0 mm | - | - | - |
| 1777850414 | 25° C | 53% | 1005.7 hPa | 0 mm | - | - | - |
| 1777850114 | 24.44° C | 54% | 1005.7 hPa | 0 mm | - | - | - |
| 1777849814 | 24.44° C | 54% | 1005.8 hPa | 0 mm | - | - | - |
| 1777849515 | 24.44° C | 51% | 1005.9 hPa | 0 mm | - | - | - |
| 1777849215 | 24.44° C | 53% | 1006 hPa | 0 mm | - | - | - |
| 1777848914 | 24.44° C | 55% | 1006.2 hPa | 0 mm | - | - | - |
* Rain latest hour (hover to see other rain measurements)
** Current wind speed in m/s (hover to see current wind gust speed)